Regional Weather Roundup
Issued by NWS Little Rock, AR

Home | Current Version | Previous Version | Text Only | Print | Product List | Glossary Off
Versions: 1 2 3 4 5 6 7 8 9 10 11 12 13 14 15 16 17 18 19 20 21 22 23 24 25 26 27 28 29 30 31 32 33 34 35 36 37 38 39 40 41 42 43 44 45 46 47 48 49 50

000
ASUS44 KLZK 201805
RWRLZK

WEATHER ROUNDUP FOR ARKANSAS
NATIONAL WEATHER SERVICE LITTLE ROCK AR
100 PM CDT MON APR 20 2015

NOTE: "FAIR" INDICATES FEW OR NO CLOUDS BELOW 12,000 FEET WITH NO
SIGNIFICANT WEATHER AND/OR OBSTRUCTIONS TO VISIBILITY.

ARZ001-003-010-029-201900-
NORTHWEST ARKANSAS

CITY           SKY/WX    TMP DP  RH WIND       PRES   REMARKS
FAYETTEVILLE   MOSUNNY   57  41  55 NW16G24   29.94S
6HR MIN TEMP:  43; 6HR MAX TEMP:  57;

FORT SMITH     SUNNY     64  28  25 NW23G31   29.94F
6HR MIN TEMP:  48; 6HR MAX TEMP:  65;

HARRISON       MOSUNNY   58  35  42 NW15G22   29.89R
6HR MIN TEMP:  45; 6HR MAX TEMP:  58;

BENTONVILLE    MOSUNNY   55  34  44 NW20G25   29.94F
6HR MIN TEMP:  45; 6HR MAX TEMP:  55;

ROGERS         MOSUNNY   56  33  42 NW14G28   29.93F
6HR MIN TEMP:  44; 6HR MAX TEMP:  56;

SILOAM SPGS    SUNNY     57  36  44 NW17G28   29.96F
6HR MIN TEMP:  43; 6HR MAX TEMP:  57;

HIGHFILL       MOSUNNY   58  33  39 NW17G25   29.93F
6HR MIN TEMP:  44; 6HR MAX TEMP:  58; 6HR PCP: TRACE;

SPRINGDALE     MOSUNNY   57  36  44 NW17G28   29.95S
$$

ARZ004-005-016-201900-
NORTH CENTRAL ARKANSAS

CITY           SKY/WX    TMP DP  RH WIND       PRES   REMARKS
BATESVILLE     MOSUNNY   63  36  36 W13G24    29.85S
6HR MIN TEMP:  52; 6HR MAX TEMP:  63;

FLIPPIN        PTSUNNY   61 N/A N/A NW10G21   29.86R
6HR MIN TEMP:  48; 6HR MAX TEMP:  61;

MTN HOME       PTSUNNY   60  34  37 W10G25    29.85S
6HR MIN TEMP:  49; 6HR MAX TEMP:  60;

$$

ARZ040-041-201900-
WEST CENTRAL ARKANSAS

CITY           SKY/WX    TMP DP  RH WIND       PRES   REMARKS
MENA           SUNNY     64  37  36 W18       29.96F
MOUNT IDA      SUNNY     64  33  31 NW10      29.91F
6HR MIN TEMP:  49; 6HR MAX TEMP:  64;

$$

ARZ009-017-025-026-028-201900-
NORTHEAST ARKANSAS

CITY           SKY/WX    TMP DP  RH WIND       PRES   REMARKS
CORNING          N/A     63  41  45 W20G25    29.81R
JONESBORO      PTSUNNY   60  41  49 W15       29.82S
6HR MIN TEMP:  53; 6HR MAX TEMP:  62;

NEWPORT        MOSUNNY   65  40  39 W20       29.85S
6HR MIN TEMP:  53; 6HR MAX TEMP:  65;

WALNUT RIDGE   PTSUNNY   63  37  39 W16       29.82R
6HR MIN TEMP:  54; 6HR MAX TEMP:  64;

BLYTHEVILLE    PTSUNNY   62  45  53 NW16G25   29.81S
6HR MIN TEMP:  55; 6HR MAX TEMP:  64;

$$

ARZ022-023-033-042-044-201900-
CENTRAL ARKANSAS

CITY           SKY/WX    TMP DP  RH WIND       PRES   REMARKS
LITTLE ROCK    MOSUNNY   66  35  31 NW15G26   29.90S
6HR MIN TEMP:  53; 6HR MAX TEMP:  66;

N LITTLE ROCK  MOSUNNY   61  43  50 NW9G21    29.90S
6HR MIN TEMP:  51; 6HR MAX TEMP:  62;

JACKSONVILLE   MOSUNNY   64  41  42 W12G23    29.89S
6HR MIN TEMP:  53; 6HR MAX TEMP:  64;

SEARCY         SUNNY     64  39  39 W13G20    29.88S
6HR MIN TEMP:  53; 6HR MAX TEMP:  65;

HOT SPRINGS    SUNNY     65  33  30 W12G20    29.92F
6HR MIN TEMP:  52; 6HR MAX TEMP:  65;

RUSSELLVILLE   SUNNY     63  38  39 W15G26    29.90F
6HR MIN TEMP:  50; 6HR MAX TEMP:  63;

CLINTON        FAIR      64  36  34 W12G21    29.88S
$$

ARZ036-201900-
EAST ARKANSAS

CITY           SKY/WX    TMP DP  RH WIND       PRES   REMARKS
WEST MEMPHIS   MOSUNNY   62  45  53 W10G21    29.84S
6HR MIN TEMP:  56; 6HR MAX TEMP:  63;

$$

ARZ050-053-066-070-073-201900-
SOUTHWEST ARKANSAS

CITY           SKY/WX    TMP DP  RH WIND       PRES   REMARKS
ARKADELPHIA    FAIR      67  38  34 NW14      29.94F
6HR MIN TEMP:  51; 6HR MAX TEMP:  67;

CAMDEN         SUNNY     66  36  32 E5G17     29.95S
TEXARKANA      SUNNY     66  39  37 NW10      29.98S
6HR MIN TEMP:  51; 6HR MAX TEMP:  66;

EL DORADO      SUNNY     66  39  37 N17       29.95F
6HR MIN TEMP:  52; 6HR MAX TEMP:  66;

DE QUEEN       SUNNY     66  35  31 N12G25    29.96F
6HR MIN TEMP:  46; 6HR MAX TEMP:  66;

$$

ARZ056-057-069-201900-
SOUTHEAST ARKANSAS

CITY           SKY/WX    TMP DP  RH WIND       PRES   REMARKS
PINE BLUFF     SUNNY     64  40  41 NW15      29.91F
6HR MIN TEMP:  53; 6HR MAX TEMP:  64;

STUTTGART      MOSUNNY   66  43  42 NW16G23   29.89F
6HR MIN TEMP:  55; 6HR MAX TEMP:  66;

MONTICELLO     SUNNY     67  42  40 W14G21    29.89F
6HR MIN TEMP:  55; 6HR MAX TEMP:  67;


$$




USA.gov is the U.S. government's official web portal to all federal, state and local government web resources and services.